{"data":{"norad_id":61729,"epoch":"2026-09-21T17:46:14.716704Z","epoch_age_seconds":81322,"freshness":"FRESH","line1":"1 61729U 24196Y   26264.74044811  .00000269  00000+0  19115-4 0  9993","line2":"2 61729  53.1603 267.8087 0001325  85.7573 274.3581 15.34391352107216","mean_motion":15.34391352,"eccentricity":0.0001325,"inclination_deg":53.1603,"raan_deg":267.8087,"arg_perigee_deg":85.7573,"mean_anomaly_deg":274.3581,"bstar":1.9115e-5,"rev_number":10721,"period_min":93.848287017718,"perigee_km":461.82252926873,"apogee_km":463.63535874389,"semimajor_km":6840.8659440063,"source":"CELESTRAK","updated_at":"2026-09-22T09:00:49.439284Z"}}